1309478432817,39.6676
1309478492817,39.5540
1309478552817,39.6350
1309478612817,39.5242
1309478672817,39.6122
1309478732817,39.6104
1309478792817,39.5865
1309478852817,39.5996
1309478912817,39.4794
1309478972817,39.6322
1309479032817,39.5843
1309479092817,39.6761
1309479152817,39.4485
1309479212817,39.6706
1309479272817,39.5930
1309479332817,39.6685
1309479392817,39.4604
1309479452817,39.5796
1309479512817,39.6818
1309479572817,39.5666
1309479632817,39.6645
1309479692817,39.6723
1309479752817,39.6539
1309479812817,39.7648
1309479872817,39.7052
1309479932817,39.5651
1309479992817,39.6077
1309480052817,39.6081
1309480112817,39.7164
1309480172817,39.6798
1309480232817,39.7165
1309480292817,39.4947
1309480352817,39.5771
1309480412817,39.7427
1309480472817,39.7254
1309480532817,39.6220
1309480592817,39.6823
1309480652817,39.6222
1309480712817,39.7439
1309480772817,39.6004
1309480832817,39.4863
1309480892817,39.5578
1309480952817,39.4537
1309481012817,39.6876
1309481072817,39.5920
1309481132817,39.6777
1309481192817,39.7030
1309481252817,39.6939
1309481312817,39.5651
1309481372817,39.7517
1309481432817,39.5386
1309481492817,39.6501
1309481552817,39.7220
1309481612817,39.5792
1309481672817,39.6494
1309481732817,39.5139
1309481792817,39.7715
1309481852817,39.5837
1309481912817,39.6736
1309481972817,39.8137
1309482032827,39.7369
1309482092827,39.6823
1309482152827,39.7303
1309482212827,39.7725
1309482272827,39.7501
1309482332827,39.6148
1309482392827,39.8145
1309482452827,39.6538
1309482512827,39.6928
1309482572827,39.5847
1309482632827,39.8382
1309482692827,39.6278
1309482752827,39.7861
1309482812827,39.7052
1309482872827,39.6833
1309482932827,39.6085
1309482992827,39.6835
1309483052827,39.7111
1309483112827,39.6542
1309483172827,39.6932
1309483232827,39.6753
1309483292827,39.6633
1309483352827,39.7145
1309483412827,39.7201
1309483472827,39.7900
1309483532827,39.7209
1309483592827,39.6568
1309483652827,39.7115
1309483712827,39.6657
1309483772827,39.7563
1309483832827,39.6322
1309483892827,39.7184
1309483952827,39.6963
1309484012827,39.7158
1309484072827,39.6995
1309484132827,39.6328
1309484192827,39.5944
1309484252827,39.6078
1309484312827,39.8050
1309484372827,39.7100
1309484432827,39.6653
1309484492827,39.7550
1309484552827,39.5662
1309484612827,39.7164
1309484672827,39.7501
1309484732827,39.7301
1309484792827,39.7069
1309484852827,39.6450
1309484912827,39.7162
1309484972827,39.6948
1309485032827,39.7067
1309485092827,39.9629
1309485152827,39.6967
1309485212827,39.6686
1309485272827,39.6716
1309485332827,39.7201
1309485392827,39.6978
1309485452827,39.7873
1309485512827,39.8417
1309485572827,39.7128
1309485632837,39.7597
1309485692837,39.7694
1309485752837,39.7140
1309485812837,39.6324
1309485872837,39.6443
1309485932837,39.5588
1309485992837,39.7172
1309486052837,39.6225
1309486112837,39.6560
1309486172837,39.6645
1309486232837,39.6052
1309486292837,39.6329
1309486352837,39.5919
1309486412837,39.5058
1309486472837,39.5011
1309486532837,39.5264
1309486592837,39.4932
1309486652837,39.4970
1309486712837,39.6011
1309486772837,39.5814
1309486832837,39.5010
1309486892837,39.6633
1309486952837,39.5196
1309487012837,39.5728
1309487072837,39.5396
1309487132837,39.5349
1309487192837,39.5050
1309487252837,39.5705
1309487312837,39.6778
1309487372837,39.4743
1309487432837,39.5802
1309487492837,39.5214
1309487552837,39.6218
1309487612837,39.6148
1309487672837,39.5531
1309487732837,39.6439
1309487792837,39.5933
1309487852837,39.5801
1309487912837,39.5464
1309487972837,39.5770
1309488032837,39.6068
1309488092837,39.6028
1309488152837,39.4794
1309488212837,39.7033
1309488272837,39.6316
1309488332837,39.5636
1309488392837,39.5249
1309488452837,39.4711
1309488512837,39.6101
1309488572837,39.5712
1309488632837,39.6284
1309488692837,39.5128
1309488752837,39.4708
1309488812837,39.4426
1309488872837,39.5518
1309488932837,39.5558
1309488992837,39.6111
1309489052837,39.6264
1309489112837,39.5239
1309489172837,39.5313
1309489232846,39.5120
1309489292846,39.3993
1309489352846,39.5206
1309489412846,39.5688
1309489472846,39.4312
1309489532846,39.6309
1309489592846,39.6384
1309489652846,39.4489
1309489712846,39.6046
1309489772846,39.6775
1309489832846,39.6975
1309489892846,39.4872
1309489952846,39.6888
1309490012846,39.6176
1309490072846,39.7519
1309490132846,39.6911
1309490192846,39.5266
1309490252846,39.6759
1309490312846,39.7933
1309490372846,39.6624
1309490432846,39.6428
1309490492846,39.6931
1309490552846,39.7011
1309490612846,39.6787
1309490672846,39.6004
1309490732846,39.5789
1309490792846,39.6733
1309490852846,39.6856
1309490912846,39.6424
1309490972846,39.5515
1309491032846,39.6329
1309491092846,40.1546
1309491152846,39.6873
1309491212846,39.6140
1309491272846,39.7633
1309491332846,39.6281
1309491392846,39.6185
1309491452846,39.5466
1309491512846,39.5885
1309491572846,39.6765
1309491632846,39.7040
1309491692846,39.5403
1309491752846,39.7479
1309491812846,39.5585
1309491872846,39.6505
1309491932846,39.5886
1309491992846,39.5786
1309492052846,39.6589
1309492112846,39.5330
1309492172846,39.5576
1309492232846,39.5205
1309492292846,39.5513
1309492352846,39.5663
1309492412846,39.6288
1309492472846,39.4699
1309492532846,39.6092
1309492592846,39.4975
1309492652846,39.5630
1309492712846,39.5907
1309492772846,39.3592
1309492832856,39.3979
1309492892856,39.4451
1309492952856,39.5847
1309493012856,39.4879
1309493072856,39.6172
1309493132856,39.4906
1309493192856,39.5590
1309493252856,39.6099
1309493312856,39.4021
1309493372856,39.5998
1309493432856,39.5113
1309493492856,39.6171
1309493552856,39.4644
1309493612856,39.5266
1309493672856,39.6569
1309493732856,39.5924
1309493792856,39.6015
1309493852856,39.4269
1309493912856,39.4882
1309493972856,39.5215
1309494032856,39.3764
1309494092856,39.7949
1309494152856,39.5533
1309494212856,39.5354
1309494272856,39.4202
1309494332856,39.4396
1309494392856,39.4470
1309494452856,39.4936
1309494512856,39.5505
1309494572856,39.5270
1309494632856,39.4466
1309494692856,39.6355
1309494752856,39.6396
1309494812856,39.6207
1309494872856,39.6007
1309494932856,39.4930
1309494992856,39.6220
1309495052856,39.5889
1309495112856,39.4364
1309495172856,39.5197
1309495232856,39.4750
1309495292856,39.5104
1309495352856,39.4893
1309495412856,39.5531
1309495472856,39.4428
1309495532856,39.4957
1309495592856,39.4391
1309495652856,39.7827
1309495712856,39.5881
1309495772856,39.4980
1309495832856,39.5510
1309495892856,39.4947
1309495952856,39.5747
1309496012856,39.5894
1309496072856,39.3826
1309496132856,39.6507
1309496192856,39.6848
1309496252856,39.4236
1309496312856,39.4660
1309496372856,39.5054
1309496432865,39.4566
1309496492865,39.5132
1309496552865,39.4770
1309496612865,39.6784
1309496672865,39.5617
1309496732865,39.5905
1309496792865,39.6259
1309496852865,39.4595
1309496912865,39.4297
1309496972865,39.5080
1309497032865,39.5273
1309497092865,39.5505
1309497152865,39.7658
1309497212865,39.4407
1309497272865,39.6282
1309497332865,39.5418
1309497392865,39.5547
1309497452865,39.5348
1309497512865,39.6083
1309497572865,39.5881
1309497632865,39.4842
1309497692865,39.5615
1309497752865,39.5376
1309497812865,39.3883
1309497872865,39.5624
1309497932865,39.5103
1309497992865,39.5068
1309498052865,39.5209
1309498112865,39.5018
1309498172865,39.4682
1309498232865,39.5642
1309498292865,39.5256
1309498352865,39.5842
1309498412865,39.5383
1309498472865,39.4119
1309498532865,39.5278
1309498592865,39.5450
1309498652865,39.4931
1309498712865,39.5781
1309498772865,39.5739
1309498832865,39.5119
1309498892865,39.5412
1309498952865,39.6215
1309499012865,39.5311
1309499072865,39.5600
1309499132865,39.5977
1309499192865,39.5779
1309499252865,39.6388
1309499312865,39.6417
1309499372865,39.6971
1309499432865,39.5607
1309499492865,39.6427
1309499552865,39.5177
1309499612865,39.6103
1309499672865,39.6471
1309499732865,39.7328
1309499792865,39.6022
1309499852865,39.7145
1309499912865,39.7281
1309499972865,39.6845
1309500032874,39.7205
1309500092874,39.6574
1309500152874,39.6511
1309500212874,39.6530
1309500272874,39.7338
1309500332874,39.6968
1309500392874,39.7585
1309500452874,39.7277
1309500512874,39.5668
1309500572874,39.7371
1309500632874,39.8395
1309500692874,39.6785
1309500752874,39.6145
1309500812874,39.5820
1309500872874,39.7300
1309500932874,39.6274
1309500992874,39.7767
1309501052874,39.7304
1309501112874,39.6199
1309501172874,39.7853
1309501232874,39.7016
1309501292874,39.7075
1309501352874,39.6001
1309501412874,39.7018
1309501472874,39.7231
1309501532874,39.8543
1309501592874,39.6968
1309501652874,39.7795
1309501712874,39.7605
1309501772874,39.7709
1309501832874,39.6573
1309501892874,39.7109
1309501952874,39.7765
1309502012874,39.5640
1309502072874,39.7025
1309502132874,39.6445
1309502192874,39.6488
1309502252874,39.7721
1309502312874,39.6363
1309502372874,39.8040
1309502432874,39.6525
1309502492874,39.6615
1309502552874,39.7464
1309502612874,39.6976
1309502672874,39.7618
1309502732874,39.7673
1309502792874,39.6447
1309502852874,39.7049
1309502912874,39.7212
1309502972874,39.6322
1309503032874,39.7750
1309503092874,39.6296
1309503152874,39.6335
1309503212874,39.7276
1309503272874,39.7906
1309503332874,39.6046
1309503392874,39.6529
1309503452874,39.6933
1309503512874,39.7039
1309503572874,39.7099
1309503632883,39.6680
1309503692883,39.7078
1309503752883,39.6700
1309503812883,39.5959
1309503872883,39.6895
1309503932883,39.6483
1309503992883,39.6888
1309504052883,39.4532
1309504112883,39.5754
1309504172883,39.7589
1309504232883,39.5573
1309504292883,39.6617
1309504352883,39.7825
1309504412883,39.5724
1309504472883,39.5805
1309504532883,39.6144
1309504592883,39.7394
1309504652883,39.6653
1309504712883,39.7392
1309504772883,39.6892
1309504832883,39.6733
1309504892883,39.7521
1309504952883,39.5768
1309505012883,39.6682
1309505072883,39.5891
1309505132883,39.5573
1309505192883,39.5555
1309505252883,39.5174
1309505312883,39.6199
1309505372883,39.6428
1309505432883,39.7427
1309505492883,39.5860
1309505552883,39.6394
1309505612883,39.6335
1309505672883,39.6659
1309505732883,39.7003
1309505792883,39.5139
1309505852883,39.7000
1309505912883,39.5931
1309505972883,39.5442
1309506032883,39.6224
1309506092883,39.6605
1309506152883,39.5743
1309506212883,39.5227
1309506272883,39.4818
1309506332883,39.5557
1309506392883,39.5746
1309506452883,39.4404
1309506512883,39.5619
1309506572883,39.5751
1309506632883,39.5819
1309506692883,39.5173
1309506752883,39.4899
1309506812883,39.4570
1309506872883,39.4742
1309506932883,39.4283
1309506992883,39.4203
1309507052883,39.4337
1309507112883,39.4751
1309507172883,39.3383
1309507232892,39.2959
1309507292892,39.4170
1309507352892,39.5099
1309507412892,39.4016
1309507472892,39.4390
1309507532892,39.3998
1309507592892,39.3312
1309507652892,39.4119
1309507712892,39.3746
1309507772892,39.3274
1309507832892,39.4630
1309507892892,39.3941
1309507952892,39.3137
1309508012892,39.2158
1309508072892,39.2576
1309508132892,39.2960
1309508192892,39.2726
1309508252892,39.3105
1309508312892,39.3624
1309508372892,39.3638
1309508432892,39.3544
1309508492892,39.3516
1309508552892,39.2635
1309508612892,39.2974
1309508672892,39.2345
1309508732892,39.3852
1309508792892,39.2649
1309508852892,39.9060
1309508912892,39.3968
1309508972892,39.4716
1309509032892,39.3448
1309509092892,39.3905
1309509152892,39.4715
1309509212892,39.3929
1309509272892,39.5003
1309509332892,39.3525
1309509392892,39.2351
1309509452892,39.3435
1309509512892,39.3932
1309509572892,39.3648
1309509632892,39.3028
1309509692892,39.4213
1309509752892,39.2740
1309509812892,39.2763
1309509872892,39.3487
1309509932892,39.3560
1309509992892,39.2446
1309510052892,39.3405
1309510112892,39.3378
1309510172892,39.4114
1309510232892,39.3064
1309510292892,39.3635
1309510352892,39.2548
1309510412892,39.2651
1309510472892,39.3256
1309510532892,39.2548
1309510592892,39.1696
1309510652892,39.2877
1309510712892,39.2774
1309510772892,39.3229
1309510832901,39.3217
1309510892901,39.2548
1309510952901,39.3387
1309511012901,39.3140
1309511072901,39.3201
1309511132901,39.2789
1309511192901,39.2758
1309511252901,39.2313
1309511312901,39.2622
1309511372901,39.3182
1309511432901,39.2830
1309511492901,39.2617
1309511552901,39.2253
1309511612901,39.2092
1309511672901,39.3087
1309511732901,39.2772
1309511792901,39.3435
1309511852901,39.1991
1309511912901,39.3975
1309511972901,39.3107
1309512032901,39.1697
1309512092901,39.3043
1309512152901,39.3005
1309512212901,39.3418
1309512272901,39.2547
1309512332901,39.2883
1309512392901,39.2845
1309512452901,39.1830
1309512512901,39.2837
1309512572901,39.3276
1309512632901,39.2933
1309512692901,39.2338
1309512752901,39.3246
1309512812901,39.5350
1309512872901,39.2678
1309512932901,39.3763
1309512992901,39.3135
1309513052901,39.2221
1309513112901,39.2958
1309513172901,39.2633
1309513232901,39.4255
1309513292901,39.4309
1309513352901,39.2774
1309513412901,39.2804
1309513472901,39.2586
1309513532901,39.2188
1309513592901,39.2213
1309513652901,39.2010
1309513712901,39.2534
1309513772901,39.2187
1309513832901,39.3039
1309513892901,39.3129
1309513952901,39.2607
1309514012901,39.1730
1309514072901,39.2854
1309514132901,39.3218
1309514192901,39.2927
1309514252901,39.3655
1309514312901,39.4594
1309514372901,39.2456
1309514432910,39.3444
1309514492910,39.3256
1309514552910,39.3471
1309514612910,39.3998
1309514672910,39.3376
1309514732910,39.2192
1309514792910,39.3450
1309514852910,39.1518
1309514912910,39.2104
1309514972910,39.1644
1309515032910,39.3635
1309515092910,39.2443
1309515152910,39.1954
1309515212910,39.2214
1309515272910,39.2793
1309515332910,39.2721
1309515392910,39.3579
1309515452910,39.2222
1309515512910,39.1760
1309515572910,39.2498
1309515632910,39.2876
1309515692910,39.1571
1309515752910,38.9811
1309515812910,39.1109
1309515872910,39.1535
1309515932910,39.0573
1309515992910,39.0379
1309516052910,39.1983
1309516112910,39.0896
1309516172910,39.0964
1309516232910,39.1226
1309516292910,39.0061
1309516352910,39.0731
1309516412910,38.9733
1309516472910,39.0561
1309516532910,38.9369
1309516592910,38.9303
1309516652910,38.9955
1309516712910,39.0147
1309516772910,39.0043
1309516832910,38.9487
1309516892910,38.9453
1309516952910,38.9578
1309517012910,38.9263
1309517072910,38.9688
1309517132910,38.9524
1309517192910,38.9082
1309517252910,38.8496
1309517312910,38.8838
1309517372910,38.9647
1309517432910,38.8908
1309517492910,38.7850
1309517552910,38.8956
1309517612910,38.8754
1309517672910,38.8611
1309517732910,38.7384
1309517792910,38.7038
1309517852910,38.8828
1309517912910,38.8044
1309517972910,38.9447
1309518032919,38.9702
1309518092919,38.9738
1309518152919,38.8744
1309518212919,38.8585
1309518272919,38.9917
1309518332919,38.8113
1309518392919,38.8244
1309518452919,38.9407
1309518512919,38.8762
1309518572919,38.7796
1309518632919,38.7588
1309518692919,38.7374
1309519232919,38.6950
1309519292919,36.5234
1309519352919,38.7676
1309519412919,38.7863
1309519472919,38.8526
1309519532919,38.7930
1309519592919,38.8023
1309519652919,38.9359
1309519712919,38.8116
1309519772919,38.8831
1309519832919,38.8883
1309519892919,38.9674
1309519952919,38.8954
1309520012919,38.9745
1309520072919,38.9570
1309520132919,38.9007
1309520192919,38.8687
1309520252919,38.9821
1309520312919,38.9236
1309520372919,38.8911
1309520432919,38.9098
1309520492919,39.0679
1309520552919,38.9068
1309520612919,39.0498
1309520672919,38.8716
1309520732919,39.0712
1309520792919,39.0000
1309520852919,38.9828
1309520912919,39.0939
1309520972919,39.0414
1309521032919,38.9662
1309521092919,39.0321
1309521152919,39.1037
1309521212919,39.0938
1309521272919,39.0625
1309521332919,39.0427
1309521392919,39.1252
1309521452919,39.0146
1309521512919,39.0518
1309521572919,39.1261
1309521632928,39.0454
1309521692928,39.1984
1309521752928,39.1823
1309521812928,39.2074
1309521872928,39.1689
1309521932928,39.0762
1309521992928,39.0907
1309522052928,39.1694
1309522112928,39.1772
1309522172928,39.1374
1309522232928,39.2211
1309522292928,39.2070
1309522352928,39.0335
1309522412928,39.0876
1309522472928,39.0140
1309522532928,39.1488
1309522592928,39.0281
1309522652928,39.0986
1309522712928,39.0705
1309522772928,38.9928
1309522832928,39.1133
1309522892928,39.1384
1309522952928,39.0071
1309523012928,39.0513
1309523072928,39.1006
1309523132928,38.9956
1309523192928,39.0729
1309523252928,39.0700
1309523312928,38.8855
1309523372928,39.1131
1309523432928,39.0182
1309523492928,39.1609
1309523552928,39.0741
1309523612928,39.2702
1309523672928,39.1307
1309523732928,39.0132
1309523792928,39.1211
1309523852928,39.1571
1309523912928,39.0398
1309523972928,39.0940
1309524032928,39.0409
1309524092928,39.0408
1309524152928,38.9751
1309524212928,39.0802
1309524272928,39.1260
1309524332928,39.0780
1309524392928,39.1050
1309524452928,39.1461
1309524512928,39.0851
1309524572928,39.0040
1309524632928,39.0103
1309524692928,39.0225
1309524752928,39.0629
1309524812928,39.0378
1309524872928,39.1563
1309524932928,39.0278
1309524992928,39.1132
1309525052928,39.0292
1309525112928,39.1347
1309525172928,39.0000
1309525232938,38.9241
1309525292938,38.9453
1309525352938,38.9313
1309525412938,38.9938
1309525472938,39.0142
1309525532938,39.0378
1309525592938,39.0529
1309525652938,39.0753
1309525712938,39.0518
1309525772938,39.0835
1309525832938,38.9257
1309525892938,38.9171
1309525952938,38.9328
1309526012938,38.9198
1309526072938,38.9526
1309526132938,38.9283
1309526192938,39.0799
1309526252938,38.9815
1309526312938,38.9201
1309526372938,38.9327
1309526432938,38.9823
1309526492938,38.9828
1309526552938,38.8684
1309526612938,38.8991
1309526672938,38.8470
1309526732938,38.8976
1309526792938,38.8098
1309526852938,38.9835
1309526912938,38.8468
1309526972938,38.9388
1309527032938,38.9092
1309527092938,38.8003
1309527152938,38.8774
1309527212938,38.8823
1309527272938,39.0010
1309527332938,38.8114
1309527392938,38.8317
1309527452938,38.9061
1309527512938,38.9611
1309527572938,38.8696
1309527632938,38.9323
1309527692938,38.8053
1309527752938,38.9127
1309527812938,38.9091
1309527872938,38.7763
1309527932938,38.9282
1309527992938,38.9870
1309528052938,38.9179
1309528112938,38.8675
1309528172938,38.9836
1309528232938,39.0967
1309528292938,38.9412
1309528352938,39.0045
1309528412938,39.0527
1309528472938,39.0904
1309528532938,39.0253
1309528592938,39.0274
1309528652938,38.8820
1309528712938,39.0396
1309528772938,39.0093
1309528832947,38.9199
1309528892947,38.9826
1309528952947,38.9505
1309529012947,39.0053
1309529072947,38.9482
1309529132947,38.9490
1309529192947,38.9053
1309529252947,38.9040
1309529312947,38.8643
1309529372947,38.7559
1309529432947,38.8043
1309529492947,38.8382
1309529552947,38.8378
1309529612947,38.6888
1309529672947,39.0544
1309529732947,38.8062
1309529792947,38.8894
1309529852947,38.8286
1309529912947,38.8995
1309529972947,38.8195
1309530032947,39.0165
1309530092947,38.9653
1309530152947,38.8938
1309530212947,38.9096
1309530272947,38.8444
1309530332947,38.8658
1309530392947,38.9357
1309530452947,38.8994
1309530512947,38.8263
1309530572947,38.8619
1309530632947,38.7706
1309530692947,38.8399
1309530752947,38.8360
1309530812947,38.8939
1309530872947,38.8613
1309530932947,38.8774
1309530992947,38.8486
1309531052947,38.7859
1309531112947,38.8366
1309531172947,38.8766
1309531232947,38.7292
1309531292947,38.7662
1309531352947,38.8119
1309531412947,38.8223
1309531472947,38.8042
1309531532947,38.8106
1309531592947,38.8004
1309531652947,38.7938
1309531712947,38.8823
1309531772947,38.8807
1309531832947,38.6853
1309531892947,38.8126
1309531952947,38.7822
1309532012947,38.8702
1309532072947,38.8424
1309532132947,38.7745
1309532192947,38.8557
1309532252947,38.7061
1309532312947,38.8339
1309532372947,38.8227
1309532432956,38.7698
1309532492956,38.7751
1309532552956,38.6493
1309532612956,38.7889
1309532672956,38.8097
1309532732956,38.8684
1309532792956,38.7440
1309532852956,38.9010
1309532912956,38.7029
1309532972956,38.7490
1309533032956,38.6329
1309533092956,38.6483
1309533152956,38.7173
1309533212956,38.7726
1309533272956,38.5937
1309533332956,38.7996
1309533392956,38.8498
1309533452956,38.6000
1309533512956,38.6701
1309533572956,38.7556
1309533632956,38.7779
1309533692956,38.7967
1309533752956,38.6166
1309533812956,38.5602
1309533872956,38.6246
1309533932956,38.6051
1309533992956,38.4996
1309534052956,38.6553
1309534112956,38.6160
1309534172956,38.6489
1309534232956,38.6754
1309534292956,38.6589
1309534352956,38.6100
1309534412956,38.7272
1309534472956,38.6726
1309534532956,38.6228
1309534592956,38.5906
1309534652956,38.5882
1309534712956,38.6407
1309534772956,38.7211
1309534832956,38.6065
1309534892956,38.5825
1309534952956,38.6521
1309535012956,38.5279
1309535072956,38.6109
1309535132956,38.5281
1309535192956,38.6186
1309535252956,38.5309
1309535312956,38.5701
1309535372956,38.4671
1309535432956,38.5955
1309535492956,38.5855
1309535552956,38.5176
1309535612956,38.5284
1309535672956,38.5502
1309535732956,38.4912
1309535792956,38.6223
1309535852956,38.5844
1309535912956,38.4865
1309535972956,38.5194
1309536032966,38.5919
1309536092966,38.6636
1309536152966,38.5458
1309536212966,38.5627
1309536272966,38.6055
1309536332966,38.5077
1309536392966,38.5658
1309536452966,38.5699
1309536512966,38.5558
1309536572966,38.6045
1309536632966,38.5308
1309536692966,38.4397
1309536752966,38.5598
1309536812966,38.7084
1309536872966,38.5749
1309536932966,38.6958
1309536992966,38.6415
1309537052966,38.5600
1309537112966,38.6358
1309537172966,38.5065
1309537232966,38.6587
1309537292966,38.5472
1309537352966,38.5960
1309537412966,38.6001
1309537472966,38.4676
1309537532966,38.5526
1309537592966,38.6057
1309537652966,38.4901
1309537712966,38.5613
1309537772966,38.5004
1309537832966,38.5804
1309537892966,38.6384
1309537952966,38.4984
1309538012966,38.5338
1309538072966,38.5518
1309538132966,38.5998
1309538192966,38.4641
1309538252966,38.5637
1309538312966,38.5747
1309538372966,38.5350
1309538432966,38.4989
1309538492966,38.4275
1309538552966,38.4131
1309538612966,38.6309
1309538672966,38.4335
1309538732966,38.4404
1309538792966,38.4310
1309538852966,38.5754
1309538912966,38.4308
1309538972966,38.5033
1309539032966,38.4753
1309539092966,38.4993
1309539152966,38.5104
1309539212966,38.4780
1309539272966,38.5754
1309539332966,38.6482
1309539392966,38.5563
1309539452966,38.4565
1309539512966,38.4810
1309539572966,38.4770
1309539632976,38.4653
1309539692976,38.4691
1309539752976,38.4835
1309539812976,38.6148
1309539872976,38.4874
1309539932976,38.5046
1309539992976,38.4804
1309540052976,38.5279
1309540112976,38.5006
1309540172976,38.5375
1309540232976,38.5277
1309540292976,38.5158
1309540352976,38.5352
1309540412976,38.7061
1309540472976,38.5179
1309540532976,38.5817
1309540592976,38.6115
1309540652976,38.5269
1309540712976,38.4509
1309540772976,38.5862
1309540832976,38.4559
1309540892976,38.6109
1309540952976,38.4811
1309541012976,38.7299
1309541072976,38.6161
1309541132976,38.7076
1309541192976,38.5664
1309541252976,38.6234
1309541312976,38.6939
1309541372976,38.5827
1309541432976,38.6603
1309541492976,38.6379
1309541552976,38.5413
1309541612976,38.6438
1309541672976,38.4939
1309541732976,38.5565
1309541792976,38.5875
1309541852976,38.5276
1309541912976,38.6033
1309541972976,38.6026
1309542032976,38.4828
1309542092976,38.5449
1309542152976,38.5559
1309542212976,38.5894
1309542272976,38.5574
1309542332976,38.5565
1309542392976,38.5137
1309542452976,38.6816
1309542512976,38.4143
1309542572976,38.5481
1309542632976,38.5735
1309542692976,38.4617
1309542752976,38.5854
1309542812976,38.5206
1309542872976,38.6744
1309542932976,38.4140
1309542992976,38.5584
1309543052976,38.5834
1309543112976,38.4781
1309543172976,38.6618
1309543232986,38.5161
1309543292986,38.3510
1309543352986,38.5082
1309543412986,38.4371
1309543472986,38.8780
1309543532986,38.4021
1309543592986,38.4642
1309543652986,38.5364
1309543712986,38.5107
1309543772986,38.4545
1309543832986,38.4616
1309543892986,38.5033
1309543952986,38.4155
1309544012986,38.4229
1309544072986,38.5048
1309544132986,38.4169
1309544192986,38.4777
1309544252986,38.6017